CW6353 Weather Reports


Display with metric or nautical units.
time (UTC)temp
F
wind
direction
speed
MPH
gust
MPH
rain 1hr
in
rain 24hr
in
rain mn
in
humidity
%
barometer
mb
20260902203506 94 44 3.0 8.0 0.00 0.00 0.00 48 1016.8
20260902203010 93 340 3.0 9.0 0.00 0.00 0.00 49 1016.7
20260902202506 93 360 6.0 9.0 0.00 0.00 0.00 49 1016.8
20260902202009 93 360 3.0 9.0 0.00 0.00 0.00 48 1017.0
20260902201510 93 179 4.0 8.0 0.00 0.00 0.00 47 1017.1
20260902201006 94 65 4.0 8.0 0.00 0.00 0.00 47 1017.3
20260902200506 94 177 3.0 7.0 0.00 0.00 0.00 49 1017.2
20260902200015 94 158 2.0 6.0 0.00 0.00 0.00 47 1017.2
20260902195508 93 116 1.0 4.0 0.00 0.00 0.00 46 1017.2
20260902195009 93 200 2.0 4.0 0.00 0.00 0.00 47 1017.3
20260902194513 94 243 2.0 5.0 0.00 0.00 0.00 44 1017.3
20260902194006 94 104 1.0 7.0 0.00 0.00 0.00 45 1017.4
20260902193507 95 49 3.0 11.0 0.00 0.00 0.00 44 1017.4
20260902193011 96 62 4.0 11.0 0.00 0.00 0.00 44 1017.4
20260902192506 95 85 7.0 14.0 0.00 0.00 0.00 45 1017.5
20260902192006 94 57 6.0 14.0 0.00 0.00 0.00 48 1017.6
20260902191515 93 64 5.0 9.0 0.00 0.00 0.00 49 1017.7
20260902191005 93 134 2.0 5.0 0.00 0.00 0.00 49 1017.9
20260902190510 93 9 2.0 5.0 0.00 0.00 0.00 50 1018.0
20260902190002 93 44 3.0 5.0 0.00 0.00 0.00 49 1018.0
20260902185503 93 51 2.0 5.0 0.00 0.00 0.00 48 1018.0
20260902185001 94 37 2.0 9.0 0.00 0.00 0.00 48 1018.2
20260902184502 94 54 4.0 9.0 0.00 0.00 0.00 46 1018.2
20260902184002 94 9 5.0 9.0 0.00 0.00 0.00 46 1018.2
20260902183502 95 360 3.0 9.0 0.00 0.00 0.00 45 1018.1
20260902183003 95 64 3.0 9.0 0.00 0.00 0.00 46 1018.2
20260902182501 95 38 1.0 4.0 0.00 0.00 0.00 45 1018.3
20260902182004 94 242 0.0 4.0 0.00 0.00 0.00 47 1018.3
20260902181503 93 273 1.0 7.0 0.00 0.00 0.00 45 1018.3
20260902181002 93 30 1.0 8.0 0.00 0.00 0.00 47 1018.5
20260902180502 93 99 4.0 8.0 0.00 0.00 0.00 46 1018.5
20260902180004 94 69 6.0 7.0 0.00 0.00 0.00 45 1018.6
20260902175501 95 72 4.0 7.0 0.00 0.00 0.00 43 1018.6
20260902175003 96 75 3.0 7.0 0.00 0.00 0.00 43 1018.7
20260902174503 96 94 4.0 7.0 0.00 0.00 0.00 42 1018.8
20260902174003 95 158 3.0 7.0 0.00 0.00 0.00 49 1018.9
20260902173505 94 348 2.0 8.0 0.00 0.00 0.00 45 1018.9
20260902173003 94 63 5.0 7.0 0.00 0.00 0.00 46 1019.1
20260902172501 94 55 4.0 7.0 0.00 0.00 0.00 45 1019.1
20260902172005 94 57 3.0 9.0 0.00 0.00 0.00 48 1019.1
20260902171503 94 11 4.0 9.0 0.00 0.00 0.00 49 1019.0
20260902171005 93 61 2.0 5.0 0.00 0.00 0.00 50 1019.2
20260902170502 92 94 3.0 6.0 0.00 0.00 0.00 54 1019.2
20260902170006 91 93 3.0 6.0 0.00 0.00 0.00 52 1019.3
20260902165503 92 74 3.0 6.0 0.00 0.00 0.00 51 1019.4
20260902165002 92 72 3.0 6.0 0.00 0.00 0.00 50 1019.4
20260902164503 93 145 1.0 6.0 0.00 0.00 0.00 48 1019.5
20260902164005 93 107 4.0 7.0 0.00 0.00 0.00 47 1019.6
20260902163503 93 86 3.0 10.0 0.00 0.00 0.00 47 1019.8
20260902163004 93 142 7.0 10.0 0.00 0.00 0.00 48 1019.8
20260902162502 92 116 1.0 6.0 0.00 0.00 0.00 49 1019.8
20260902162007 92 134 2.0 7.0 0.00 0.00 0.00 49 1019.9
20260902161508 92 101 3.0 7.0 0.00 0.00 0.00 49 1019.9
20260902161002 92 117 4.0 7.0 0.00 0.00 0.00 49 1019.9
20260902160501 92 43 2.0 5.0 0.00 0.00 0.00 50 1019.9
20260902160004 92 38 2.0 6.0 0.00 0.00 0.00 52 1020.0
20260902155503 91 11 3.0 6.0 0.00 0.00 0.00 51 1020.1
20260902155003 92 263 1.0 5.0 0.00 0.00 0.00 52 1020.1
20260902154503 91 348 3.0 5.0 0.00 0.00 0.00 52 1020.1
20260902154002 91 308 2.0 3.0 0.00 0.00 0.00 51 1020.2
20260902153506 91 9 1.0 4.0 0.00 0.00 0.00 52 1020.2
20260902153005 91 335 1.0 4.0 0.00 0.00 0.00 53 1020.2
20260902152504 91 327 2.0 4.0 0.00 0.00 0.00 53 1020.1
20260902152004 90 27 2.0 5.0 0.00 0.00 0.00 56 1020.2
20260902151509 90 61 2.0 5.0 0.00 0.00 0.00 58 1020.2
20260902151004 90 296 1.0 5.0 0.00 0.00 0.00 58 1020.2
20260902150505 89 236 1.0 4.0 0.00 0.00 0.00 59 1020.2
20260902150012 90 308 3.0 4.0 0.00 0.00 0.00 57 1020.2
20260902145503 90 75 2.0 4.0 0.00 0.00 0.00 61 1020.1
20260902145004 89 17 2.0 4.0 0.00 0.00 0.00 62 1020.1
20260902144504 89 36 2.0 4.0 0.00 0.00 0.00 61 1020.0
20260902144003 89 46 2.0 4.0 0.00 0.00 0.00 62 1020.1
20260902143507 89 71 2.0 4.0 0.00 0.00 0.00 63 1020.0
20260902143004 89 53 0.0 4.0 0.00 0.00 0.00 63 1020.0
20260902142504 88 32 2.0 4.0 0.00 0.00 0.00 64 1020.1
20260902142004 88 37 1.0 3.0 0.00 0.00 0.00 63 1020.0
20260902141503 87 36 1.0 3.0 0.00 0.00 0.00 67 1020.0
20260902141003 87 74 1.0 3.0 0.00 0.00 0.00 65 1020.0
20260902140507 87 52 1.0 3.0 0.00 0.00 0.00 65 1020.0
20260902140006 87 60 2.0 3.0 0.00 0.00 0.00 66 1020.0
20260902135509 86 45 0.0 3.0 0.00 0.00 0.00 67 1020.0
20260902135004 86 76 1.0 3.0 0.00 0.00 0.00 68 1020.1
20260902134504 86 76 1.0 3.0 0.00 0.00 0.00 69 1020.2
20260902134004 85 91 0.0 2.0 0.00 0.00 0.00 70 1020.1
20260902133502 84 76 1.0 2.0 0.00 0.00 0.00 71 1020.1
20260902133005 84 140 1.0 2.0 0.00 0.00 0.00 71 1020.1
20260902132504 83 126 0.0 2.0 0.00 0.00 0.00 73 1020.1
20260902132004 83 142 1.0 2.0 0.00 0.00 0.00 74 1020.1
20260902131510 82 117 1.0 2.0 0.00 0.00 0.00 74 1020.1
20260902131005 81 87 0.0 2.0 0.00 0.00 0.00 78 1020.0
20260902130504 80 84 1.0 2.0 0.00 0.00 0.00 79 1019.9
20260902130010 79 84 0.0 2.0 0.00 0.00 0.00 81 1019.9
20260902125504 78 124 0.0 0.0 0.00 0.00 0.00 83 1019.9
20260902125003 77 255 0.0 0.0 0.00 0.00 0.00 86 1019.8
20260902124514 76 255 0.0 0.0 0.00 0.00 0.00 85 1019.8
20260902124004 76 255 0.0 0.0 0.00 0.00 0.00 86 1019.8
20260902123511 75 324 0.0 0.0 0.00 0.00 0.00 87 1019.9
20260902123012 74 340 0.0 0.0 0.00 0.00 0.00 90 1019.7
20260902122507 73 256 0.0 0.0 0.00 0.00 0.00 91 1019.6
20260902122003 72 255 0.0 0.0 0.00 0.00 0.00 91 1019.5
20260902121503 72 255 0.0 0.0 0.00 0.00 0.00 91 1019.5
20260902121004 71 255 0.0 0.0 0.00 0.00 0.00 91 1019.5
20260902120505 71 255 0.0 0.0 0.00 0.00 0.00 91 1019.4
20260902120010 70 255 0.0 0.0 0.00 0.00 0.00 91 1019.5
20260902115506 70 255 0.0 0.0 0.00 0.00 0.00 90 1019.3
20260902115007 70 255 0.0 0.0 0.00 0.00 0.00 90 1019.3
20260902114516 70 255 0.0 0.0 0.00 0.00 0.00 90 1019.2
20260902114010 70 255 0.0 0.0 0.00 0.00 0.00 90 1019.2
20260902113503 70 255 0.0 0.0 0.00 0.00 0.00 90 1019.2
20260902113025 70 255 0.0 0.0 0.00 0.00 0.00 90 1019.2
20260902112508 70 255 0.0 0.0 0.00 0.00 0.00 90 1019.2
20260902112006 70 255 0.0 0.0 0.00 0.00 0.00 90 1019.2
20260902111538 70 255 0.0 0.0 0.00 0.00 0.00 90 1019.1
20260902111006 70 255 0.0 0.0 0.00 0.00 0.00 90 1019.1
20260902110504 70 255 0.0 0.0 0.00 0.00 0.00 90 1019.0
20260902110013 70 255 0.0 0.0 0.00 0.00 0.00 90 1018.9
20260902105506 71 255 0.0 0.0 0.00 0.00 0.00 89 1018.8
20260902105007 71 255 0.0 0.0 0.00 0.00 0.00 89 1018.8
20260902104528 71 255 0.0 0.0 0.00 0.00 0.00 89 1018.9
20260902104009 71 255 0.0 0.0 0.00 0.00 0.00 89 1018.9
20260902103509 71 255 0.0 0.0 0.00 0.00 0.00 89 1018.8
20260902103015 71 255 0.0 0.0 0.00 0.00 0.00 89 1018.8
20260902102503 71 255 0.0 0.0 0.00 0.00 0.00 89 1018.8
20260902102015 71 255 0.0 0.0 0.00 0.00 0.00 89 1018.7
20260902101516 71 255 0.0 0.0 0.00 0.00 0.00 89 1018.6
20260902101013 71 255 0.0 0.0 0.00 0.00 0.00 89 1018.6
20260902100508 71 255 0.0 0.0 0.00 0.00 0.00 88 1018.6
20260902100007 71 255 0.0 0.0 0.00 0.00 0.00 88 1018.5
20260902095504 71 255 0.0 0.0 0.00 0.00 0.00 88 1018.5
20260902095001 71 261 0.0 0.0 0.00 0.00 0.00 88 1018.5
20260902094517 71 256 0.0 0.0 0.00 0.00 0.00 88 1018.4
20260902094001 71 255 0.0 0.0 0.00 0.00 0.00 87 1018.3
20260902093502 72 255 0.0 0.0 0.00 0.00 0.00 87 1018.3
20260902093003 72 255 0.0 0.0 0.00 0.00 0.00 87 1018.2
20260902092502 72 255 0.0 0.0 0.00 0.00 0.00 87 1018.2
20260902092004 72 212 0.0 0.0 0.00 0.00 0.00 87 1018.2
20260902091503 72 212 0.0 2.0 0.00 0.00 0.00 87 1018.3
20260902091002 72 212 0.0 2.0 0.00 0.00 0.00 87 1018.1
20260902090503 72 212 0.0 2.0 0.00 0.00 0.00 87 1018.0
20260902090003 72 212 0.0 1.0 0.00 0.00 0.00 87 1017.9
20260902085502 72 212 0.0 1.0 0.00 0.00 0.00 87 1017.9
20260902085008 72 212 0.0 2.0 0.00 0.00 0.00 87 1017.9
20260902084504 72 212 0.0 2.0 0.00 0.00 0.00 86 1018.0
20260902084008 72 212 0.0 0.0 0.00 0.00 0.00 86 1018.0
20260902083504 72 212 0.0 0.0 0.00 0.00 0.00 86 1017.9
20260902083004 72 212 0.0 1.0 0.00 0.00 0.00 86 1017.8
20260902082502 72 212 0.0 2.0 0.00 0.00 0.00 86 1017.8
20260902082002 72 212 0.0 2.0 0.00 0.00 0.00 86 1017.7
20260902081513 72 212 0.0 2.0 0.00 0.00 0.00 86 1017.7
20260902081003 72 178 1.0 2.0 0.00 0.00 0.00 86 1017.8
20260902080503 72 207 0.0 2.0 0.00 0.00 0.00 86 1017.9
20260902080006 72 205 0.0 2.0 0.00 0.00 0.00 86 1017.8
20260902075504 72 182 0.0 2.0 0.00 0.00 0.00 86 1017.8
20260902075003 72 186 1.0 3.0 0.00 0.00 0.00 86 1017.7
20260902074508 72 174 0.0 3.0 0.00 0.00 0.00 86 1017.6
20260902074005 72 213 1.0 2.0 0.00 0.00 0.00 86 1017.6
20260902073507 72 187 0.0 2.0 0.00 0.00 0.00 85 1017.7
20260902073006 72 204 0.0 2.0 0.00 0.00 0.00 85 1017.8
20260902072504 72 196 0.0 2.0 0.00 0.00 0.00 85 1017.9
20260902072008 72 225 0.0 3.0 0.00 0.00 0.00 85 1017.8
20260902071510 72 219 0.0 3.0 0.00 0.00 0.00 85 1017.8
20260902071003 72 214 0.0 2.0 0.00 0.00 0.00 85 1017.7
20260902070507 73 214 0.0 2.0 0.00 0.00 0.00 85 1017.7
20260902070008 73 195 0.0 2.0 0.00 0.00 0.00 85 1017.8
20260902065503 73 196 0.0 2.0 0.00 0.00 0.00 85 1017.9
20260902065003 72 196 0.0 2.0 0.00 0.00 0.00 85 1018.0
20260902064505 72 203 0.0 2.0 0.00 0.00 0.00 85 1018.1
20260902064004 73 203 0.0 2.0 0.00 0.00 0.00 85 1018.0
20260902063504 73 203 0.0 2.0 0.00 0.00 0.00 85 1018.0
20260902063007 73 217 0.0 2.0 0.00 0.00 0.00 85 1017.8
20260902062508 73 175 0.0 2.0 0.00 0.00 0.00 84 1017.9
20260902062004 73 175 0.0 2.0 0.00 0.00 0.00 84 1017.9
20260902061515 73 175 0.0 3.0 0.00 0.00 0.00 84 1017.9
20260902061009 73 180 1.0 3.0 0.00 0.00 0.00 84 1018.1
20260902060503 73 161 1.0 2.0 0.00 0.00 0.00 85 1018.1
20260902060021 73 161 0.0 1.0 0.00 0.00 0.00 85 1018.1
20260902055507 73 161 0.0 2.0 0.00 0.00 0.00 84 1018.0
20260902055003 73 161 0.0 2.0 0.00 0.00 0.00 84 1018.1
20260902054510 73 161 0.0 0.0 0.00 0.00 0.00 84 1018.1
20260902054003 74 161 0.0 0.0 0.00 0.00 0.00 83 1018.2
20260902053504 74 161 0.0 0.0 0.00 0.00 0.00 83 1018.2
20260902053010 74 161 0.0 0.0 0.00 0.00 0.00 83 1018.2
20260902052505 74 161 0.0 0.0 0.00 0.00 0.00 83 1018.1
20260902052009 74 161 0.0 0.0 0.00 0.00 0.00 82 1018.0
20260902051511 74 161 0.0 2.0 0.00 0.00 0.00 82 1018.0
20260902051004 74 161 0.0 2.0 0.00 0.00 0.00 82 1018.0
20260902050509 74 161 0.0 2.0 0.00 0.00 0.00 82 1018.0
20260902050010 74 186 0.0 2.0 0.00 0.00 0.00 82 1018.0
20260902045511 74 149 1.0 4.0 0.00 0.00 0.00 82 1018.1
20260902045007 74 140 2.0 4.0 0.00 0.00 0.00 82 1018.2
20260902044504 74 113 1.0 2.0 0.00 0.00 0.00 82 1018.0
20260902044012 74 126 0.0 2.0 0.00 0.00 0.00 82 1018.0
20260902043503 74 140 1.0 3.0 0.00 0.00 0.00 81 1017.9
20260902043006 75 123 2.0 3.0 0.00 0.00 0.00 81 1018.0
20260902042504 75 102 1.0 2.0 0.00 0.00 0.00 81 1018.1
20260902042006 75 115 1.0 2.0 0.00 0.00 0.00 80 1018.1
20260902041510 75 117 1.0 2.0 0.00 0.00 0.00 80 1018.2
20260902041006 75 117 1.0 2.0 0.00 0.00 0.00 80 1018.2
20260902040507 75 111 1.0 2.0 0.00 0.00 0.00 80 1018.3
20260902040014 75 114 1.0 2.0 0.00 0.00 0.00 79 1018.1
20260902035506 76 112 1.0 2.0 0.00 0.00 0.00 79 1018.1
20260902035011 76 129 1.0 2.0 0.00 0.00 0.00 78 1018.2
20260902034523 76 123 0.0 2.0 0.00 0.00 0.00 78 1018.3
20260902034005 76 97 1.0 2.0 0.00 0.00 0.00 78 1018.3
20260902033513 76 107 1.0 2.0 0.00 0.00 0.00 77 1018.3
20260902033025 77 107 1.0 2.0 0.00 0.00 0.00 77 1018.2
20260902032504 77 107 0.0 3.0 0.00 0.00 0.00 77 1018.2
20260902032004 77 107 1.0 4.0 0.00 0.00 0.00 76 1018.2
20260902031507 77 94 2.0 4.0 0.00 0.00 0.00 76 1018.2
20260902031005 77 84 2.0 5.0 0.00 0.00 0.00 76 1018.2
20260902030506 77 74 3.0 5.0 0.00 0.00 0.00 76 1018.3
20260902030010 77 98 2.0 5.0 0.00 0.00 0.00 76 1018.3
20260902025508 77 69 3.0 6.0 0.00 0.00 0.00 76 1018.4
20260902025009 77 82 2.0 6.0 0.00 0.00 0.00 75 1018.4
20260902024509 77 74 3.0 4.0 0.00 0.00 0.00 75 1018.4
20260902024012 78 65 2.0 5.0 0.00 0.00 0.00 75 1018.5
20260902023508 78 70 3.0 5.0 0.00 0.00 0.00 74 1018.5
20260902023025 78 84 3.0 5.0 0.00 0.00 0.00 74 1018.4
20260902022514 78 78 3.0 5.0 0.00 0.00 0.00 74 1018.4
20260902022003 78 83 3.0 5.0 0.00 0.00 0.00 74 1018.3
20260902021534 78 66 3.0 4.0 0.00 0.00 0.00 74 1018.3
20260902021008 79 96 3.0 4.0 0.00 0.00 0.00 73 1018.2
20260902020505 79 82 3.0 5.0 0.00 0.00 0.00 72 1018.2
20260902020006 79 91 3.0 5.0 0.00 0.00 0.00 72 1018.2
20260902015507 79 81 3.0 4.0 0.00 0.00 0.00 71 1018.1
20260902015009 80 102 3.0 4.0 0.00 0.00 0.00 70 1017.9
20260902014523 80 89 2.0 4.0 0.00 0.00 0.00 70 1017.8
20260902014010 80 105 3.0 4.0 0.00 0.00 0.00 70 1017.8
20260902013510 80 79 3.0 5.0 0.00 0.00 0.00 69 1017.6
20260902013018 80 81 3.0 5.0 0.00 0.00 0.00 68 1017.5
20260902012505 80 82 3.0 4.0 0.00 0.00 0.00 69 1017.5
20260902012013 80 76 3.0 6.0 0.00 0.00 0.00 68 1017.4
20260902011523 80 100 3.0 7.0 0.00 0.00 0.00 69 1017.3
20260902011015 80 84 4.0 7.0 0.00 0.00 0.00 69 1017.4
20260902010513 81 86 3.0 6.0 0.00 0.00 0.00 69 1017.3
20260902010009 81 76 3.0 6.0 0.00 0.00 0.00 70 1017.3
20260902005516 81 84 3.0 6.0 0.00 0.00 0.00 69 1017.4
20260902005005 81 82 3.0 6.0 0.00 0.00 0.00 68 1017.5
20260902004508 82 78 4.0 5.0 0.00 0.00 0.00 67 1017.4
20260902004008 83 69 3.0 5.0 0.00 0.00 0.00 66 1017.4
20260902003509 83 70 2.0 4.0 0.00 0.00 0.00 65 1017.3
20260902003024 84 64 2.0 3.0 0.00 0.00 0.00 63 1017.3
20260902002508 84 64 2.0 6.0 0.00 0.00 0.00 62 1017.2
20260902002010 85 84 3.0 6.0 0.00 0.00 0.00 60 1017.1
20260902001524 86 92 3.0 5.0 0.00 0.00 0.00 60 1017.0
20260902001012 86 82 3.0 5.0 0.00 0.00 0.00 59 1017.2
20260902000514 87 66 3.0 5.0 0.00 0.00 0.00 57 1017.2
20260902000044 88 85 3.0 5.0 0.00 0.00 0.00 55 1017.2
20260901235511 88 360 3.0 4.0 0.00 0.00 0.00 55 1017.2
20260901235006 88 94 2.0 4.0 0.00 0.00 0.00 53 1017.2
20260901234506 89 100 3.0 7.0 0.00 0.00 0.00 54 1017.2
20260901234001 89 90 3.0 8.0 0.00 0.00 0.00 52 1017.2
20260901233502 90 84 4.0 8.0 0.00 0.00 0.00 50 1017.1
20260901233002 90 76 3.0 6.0 0.00 0.00 0.00 50 1017.2
20260901232502 91 55 3.0 9.0 0.00 0.00 0.00 49 1017.2
20260901232002 91 57 3.0 9.0 0.00 0.00 0.00 49 1017.2
20260901231507 92 78 4.0 9.0 0.00 0.00 0.00 49 1017.2
20260901231003 92 63 4.0 9.0 0.00 0.00 0.00 48 1017.2
20260901230503 92 79 6.0 9.0 0.00 0.00 0.00 47 1017.3
20260901230003 93 22 3.0 6.0 0.00 0.00 0.00 47 1017.3
20260901225503 93 46 4.0 9.0 0.00 0.00 0.00 47 1017.3
20260901225002 93 42 5.0 9.0 0.00 0.00 0.00 47 1017.3
20260901224506 93 100 4.0 11.0 0.00 0.00 0.00 47 1017.3
20260901224004 93 59 5.0 11.0 0.00 0.00 0.00 46 1017.3
20260901223502 93 84 8.0 11.0 0.00 0.00 0.00 46 1017.3
20260901223002 93 83 4.0 12.0 0.00 0.00 0.00 46 1017.2
20260901222503 93 74 4.0 12.0 0.00 0.00 0.00 45 1017.2
20260901222002 94 76 8.0 12.0 0.00 0.00 0.00 43 1017.1
20260901221509 94 132 5.0 9.0 0.00 0.00 0.00 42 1017.0
20260901221003 95 107 3.0 8.0 0.00 0.00 0.00 42 1016.9
20260901220501 95 84 2.0 9.0 0.00 0.00 0.00 43 1016.8
20260901220006 94 42 2.0 9.0 0.00 0.00 0.00 42 1016.9
20260901215503 94 72 4.0 10.0 0.00 0.00 0.00 42 1017.0
20260901215008 94 95 4.0 10.0 0.00 0.00 0.00 40 1017.0
20260901214508 94 73 3.0 10.0 0.00 0.00 0.00 42 1017.1
20260901214006 95 89 5.0 9.0 0.00 0.00 0.00 41 1017.1
20260901213505 95 26 5.0 12.0 0.00 0.00 0.00 41 1017.2
20260901213004 95 117 6.0 12.0 0.00 0.00 0.00 41 1017.1
20260901212502 95 96 6.0 12.0 0.00 0.00 0.00 41 1017.0
20260901212005 95 134 2.0 11.0 0.00 0.00 0.00 37 1017.0
20260901211509 95 127 5.0 10.0 0.00 0.00 0.00 36 1017.1
20260901211001 95 111 3.0 8.0 0.00 0.00 0.00 35 1017.1
20260901210504 95 108 4.0 11.0 0.00 0.00 0.00 36 1017.3
20260901210003 95 59 2.0 12.0 0.00 0.00 0.00 37 1017.2
20260901205503 95 59 5.0 12.0 0.00 0.00 0.00 37 1017.3
20260901205003 95 96 4.0 9.0 0.00 0.00 0.00 35 1017.3
20260901204504 95 91 4.0 9.0 0.00 0.00 0.00 37 1017.3
20260901204003 95 155 3.0 10.0 0.00 0.00 0.00 38 1017.4